Hill AFB, UT

6:13 PM MST on December 07, 2016 (GMT -0700)
Hill Air Force Base

Weather History for KHIF - April, 2014

Change the Weather History Date:

Saturday, April 19, 2014

  Actual Average Record
Temperature  
Mean Temperature 56 °F -  
Max Temperature 66 °F 55 °F 71 °F (2008)
Min Temperature 46 °F 37 °F 28 °F (2006)
Degree Days  
Heating Degree Days 9    
Growing Degree Days 6 (Base 50)    
Moisture  
Dew Point 34 °F    
Average Humidity 40    
Maximum Humidity 70    
Minimum Humidity 22    
Precipitation  
Precipitation 0.00 in - - ()
Sea Level Pressure  
Sea Level Pressure 29.96 in    
Wind  
Wind Speed 8 mph (South)    
Max Wind Speed 15 mph    
Max Gust Speed -    
Visibility 10 miles    
Events Rain    
Averages and records for this station are not official NWS values.
T = Trace of Precipitation, MM = Missing Value Source: NWS Daily Summary

Daily Weather History Graph

Daily Weather History Graph

Search for Another Location

Airport or City:

Trip Planner

Search our weather history database for the weather conditions in past years. The results will help you decide how hot, cold, wet, or windy it might be!

Date:

Astronomy

Apr. 19, 2014 Rise Set
Actual Time 6:42 AM MDT 8:12 PM MDT
Civil Twilight 6:13 AM MDT 8:41 PM MDT
Nautical Twilight 5:38 AM MDT 9:16 PM MDT
Astronomical Twilight 5:01 AM MDT 9:53 PM MDT
Moon 12:01 AM MDT (4/19) 10:03 AM MDT (4/19)
Length of Visible Light 14h 27m
Length of Day
13h 29m
Waning Gibbous, 78% of the Moon is Illuminated
Apr 19
Waning Gibbous
Apr 22
Last Quarter
Apr 29
New
May 6
First Quarter
May 14
Full

Hourly Weather History & Observations

Time (MDT) Temp. Dew Point Humidity Pressure Visibility Wind Dir Wind Speed Gust Speed Precip Events Conditions
12:58 AM 50.5 °F 39.4 °F 66% 29.89 in 10.0 mi NW 8.1 mph - N/A   Overcast
1:58 AM 51.3 °F 35.8 °F 55% 29.89 in 10.0 mi ESE 12.7 mph - N/A   Overcast
2:58 AM 48.9 °F 39.6 °F 70% 29.89 in 10.0 mi NW 4.6 mph - N/A   Overcast
3:58 AM 49.8 °F 36.7 °F 61% 29.88 in 10.0 mi SE 6.9 mph - N/A   Mostly Cloudy
4:58 AM 47.7 °F 36.3 °F 65% 29.89 in 10.0 mi ESE 11.5 mph - N/A   Mostly Cloudy
5:58 AM 46.8 °F 36.5 °F 67% 29.91 in 10.0 mi ESE 10.4 mph - N/A   Clear
6:58 AM 48.0 °F 35.2 °F 61% 29.91 in 10.0 mi ESE 11.5 mph - N/A   Mostly Cloudy
7:58 AM 49.1 °F 35.4 °F 59% 29.94 in 10.0 mi ESE 15.0 mph - N/A   Overcast
8:58 AM 50.9 °F 36.1 °F 57% 29.95 in 10.0 mi ESE 12.7 mph - N/A   Overcast
9:58 AM 53.4 °F 36.1 °F 52% 29.95 in 10.0 mi ESE 10.4 mph - N/A   Overcast
10:56 AM 59.0 °F 37.4 °F 45% 30.04 in 10.0 mi ESE 4.6 mph - N/A Rain Light Rain
10:58 AM 59.0 °F 37.4 °F 45% 29.94 in 10.0 mi ESE 4.6 mph - N/A Rain Light Rain
11:03 AM 59.0 °F 37.4 °F 45% 30.04 in 10.0 mi ENE 1.2 mph - N/A Rain Light Rain
11:05 AM 60.8 °F 37.4 °F 42% 30.04 in 10.0 mi Variable 3.5 mph - N/A   Mostly Cloudy
11:10 AM 60.8 °F 37.4 °F 42% 30.04 in 10.0 mi Variable 2.3 mph - N/A   Mostly Cloudy
11:58 AM 63.0 °F 38.8 °F 41% 29.94 in 10.0 mi South 10.4 mph - 0.00 in   Partly Cloudy
12:58 PM 64.6 °F 37.4 °F 37% 29.93 in 10.0 mi South 10.4 mph - N/A   Clear
1:58 PM 66.9 °F 36.5 °F 33% 29.92 in 10.0 mi Variable 3.5 mph - N/A   Partly Cloudy
2:06 PM 66.2 °F 37.4 °F 35% 30.03 in 10.0 mi WSW 9.2 mph - N/A Rain Light Rain
2:11 PM 66.2 °F 35.6 °F 32% 30.03 in 10.0 mi SSW 9.2 mph - N/A Rain Light Rain
2:14 PM 66.2 °F 37.4 °F 35% 30.03 in 10.0 mi SW 6.9 mph - N/A   Mostly Cloudy
2:44 PM 66.2 °F 35.6 °F 32% 30.03 in 10.0 mi SW 6.9 mph - N/A   Mostly Cloudy
2:54 PM 66.2 °F 35.6 °F 32% 30.03 in 10.0 mi West 9.2 mph - N/A   Mostly Cloudy
2:58 PM 66.0 °F 36.1 °F 33% 29.92 in 10.0 mi West 10.4 mph - 0.00 in   Mostly Cloudy
3:58 PM 66.0 °F 34.7 °F 31% 29.90 in 10.0 mi West 8.1 mph - N/A   Partly Cloudy
4:10 PM 66.2 °F 32.0 °F 28% 30.01 in 10.0 mi Variable 4.6 mph - N/A Rain Light Rain
4:20 PM 66.2 °F 32.0 °F 28% 30.00 in 10.0 mi NW 6.9 mph - N/A   Partly Cloudy
4:23 PM 66.2 °F 32.0 °F 28% 30.00 in 10.0 mi NW 4.6 mph - N/A Rain Light Rain
4:40 PM 66.2 °F 32.0 °F 28% 30.00 in 10.0 mi SW 8.1 mph - N/A   Clear
4:58 PM 66.2 °F 30.6 °F 26% 29.90 in 10.0 mi West 8.1 mph - 0.00 in   Clear
5:21 PM 66.2 °F 32.0 °F 28% 30.00 in 10.0 mi WSW 5.8 mph - N/A Rain Light Rain
5:29 PM 66.2 °F 32.0 °F 28% 30.00 in 10.0 mi WSW 4.6 mph - N/A   Partly Cloudy
5:37 PM 66.2 °F 32.0 °F 28% 30.00 in 10.0 mi Calm Calm - N/A Rain Light Rain
5:47 PM 66.2 °F 32.0 °F 28% 29.99 in 10.0 mi Calm Calm - N/A   Partly Cloudy
5:58 PM 66.6 °F 30.4 °F 26% 29.89 in 10.0 mi WSW 8.1 mph - 0.00 in   Clear
6:58 PM 66.6 °F 26.1 °F 22% 29.89 in 10.0 mi SW 4.6 mph - 0.00 in   Clear
7:58 PM 62.4 °F 29.1 °F 28% 29.90 in 10.0 mi SSW 4.6 mph - N/A   Clear
8:58 PM 59.2 °F 28.4 °F 31% 29.91 in 10.0 mi SE 4.6 mph - N/A   Clear
9:58 PM 58.1 °F 29.3 °F 33% 29.92 in 10.0 mi ESE 9.2 mph - N/A   Clear
10:58 PM 57.2 °F 27.9 °F 33% 29.90 in 10.0 mi ESE 10.4 mph - N/A   Clear
11:58 PM 56.1 °F 29.1 °F 36% 29.91 in 10.0 mi ESE 11.5 mph - N/A   Clear